Location: Newark
(45.5000°N, 11.4167°E)
Time: 03:50:23
(UTC+00:00)

A-11 Canister half - Pass Details

Date: 25 August 2019
Orbit: 1513 x 1686 km, 47.2° (Epoch: 19 September)

Event Time Altitude Azimuth Distance (km) Brightness Sun altitude
Rises 21:03:00 0° 287° (WNW) 4,752 12.4 -26.4°
Reaches altitude 10° 21:06:02 10° 287° (WNW) 3,789 11.7 -26.7°
Maximum altitude 21:15:43 81° 202° (SSW) 1,648 8.9 -27.7°
Enters shadow 21:19:10 47° 124° (SE) 2,066 9.2 -28.0°
Drops below altitude 10° 21:25:44 10° 117° (ESE) 3,913 - -28.6°
Sets 21:28:55 0° 117° (ESE) 4,914 - -28.9°
